[ ตารางข้อมูล ] [ Min-Max ] [ วันนี้2 ] [ วันนี้4 ] [ เทียบ-A 3วัน ] [ เทียบ-B 4วัน ]   

วันนี้4   [ ◀ ช่วงเก่ากว่า ] [ ช่วงที่ 37 ] [ ช่วงใหม่กว่า ▶ ] [ ล่าสุด ]    [ 3 ชั่วโมง ] [ 6 ชั่วโมง ] [ 12 ชั่วโมง ] [ 24 ชั่วโมง ]   วันนี้4

อุณภูมิในตู้ Knockdown4529  ราย 24 ชั่วโมง  ที่วัดได้ ในช่วงวันเวลา 27/07/2026 (13:39) ถึง 28/07/2026 (13:39) 
ความชื้นในตู้ Knockdown4529  ราย 24 ชั่วโมง  ที่วัดได้ ในช่วงวันเวลา 27/07/2026 (13:39) ถึง 28/07/2026 (13:39) 
การใช้ไฟฟ้าในตู้ Knockdown4529  ราย 24 ชั่วโมง  ที่วัดได้ ในช่วงวันเวลา 27/07/2026 (13:39) ถึง 28/07/2026 (13:39) 

  DS18B20SHTC3PZEM-004TWiFi 
IDDate d/m/Y & Timedata1
สูง
data2
ต่ำ
data3
นอก
temp
pcb
hum
pcb
VoltAmpWattrssiTime
 7371  28/07/2026 13:35:25  34.5  32.4  35.7  35.2  61.9  234.1  0.04  4.6  -81  13:35 
 7370  28/07/2026 13:30:41  34.4  32.4  35.5  35.2  62.0  233.5  0.04  4.6  -82  13:30 
 7369  28/07/2026 13:25:59  34.4  32.3  35.3  35.0  62.0  234.1  0.04  4.6  -81  13:25 
 7368  28/07/2026 13:21:14  34.4  32.3  35.0  35.1  62.0  231.1  0.04  4.6  -82  13:21 
 7367  28/07/2026 13:16:31  34.3  32.2  34.9  35.0  61.9  233.3  0.04  4.6  -82  13:16 
 7366  28/07/2026 13:11:48  34.2  32.2  34.5  34.9  62.0  232.6  0.04  4.6  -79  13:11 
 7365  28/07/2026 13:07:05  34.2  32.1  34.9  35.0  61.9  232.2  0.04  4.6  -82  13:07 
 7364  28/07/2026 13:02:21  34.1  32.1  34.9  34.6  62.1  235.5  0.04  4.6  -83  13:02 
 7363  28/07/2026 12:57:39  34.0  32.0  34.4  34.6  62.1  235.4  0.04  4.6  -83  12:57 
 7362  28/07/2026 12:52:52  33.9  31.9  34.6  34.6  62.2  235.3  0.04  4.6  -81  12:52 
 7361  28/07/2026 12:48:08  33.8  31.9  34.9  34.6  62.4  235.3  0.04  4.6  -82  12:48 
 7360  28/07/2026 12:43:25  33.6  31.8  34.9  34.4  62.3  235.3  0.04  4.6  -79  12:43 
 7359  28/07/2026 12:38:42  33.6  31.8  34.7  34.3  62.5  235.4  0.04  4.6  -81  12:38 
 7358  28/07/2026 12:33:59  33.4  31.7  34.3  34.2  62.5  235.3  0.04  4.6  -79  12:33 
 7357  28/07/2026 12:29:15  33.4  31.6  34.1  34.1  62.6  235.3  0.04  4.6  -80  12:29 
 7356  28/07/2026 12:24:32  33.2  31.6  33.7  34.1  62.5  235.3  0.04  4.6  -78  12:24 
 7355  28/07/2026 12:19:48  33.1  31.6  34.1  33.8  62.8  235.8  0.04  4.6  -81  12:19 
 7354  28/07/2026 12:15:05  32.9  31.5  33.8  33.9  62.8  235.8  0.04  4.6  -81  12:15 
 7353  28/07/2026 12:10:22  32.8  31.4  33.7  33.6  63.0  236.3  0.04  4.6  -81  12:10 
 7352  28/07/2026 12:05:39  32.7  31.4  33.4  33.6  63.0  235.9  0.04  4.6  -82  12:05 
 7351  28/07/2026 12:00:56  32.6  31.4  32.9  33.4  63.0  236.4  0.04  4.6  -81  12:00 
 7350  28/07/2026 11:56:13  32.6  31.3  32.9  33.4  63.1  235.0  0.04  4.6  -80  11:56 
 7349  28/07/2026 11:51:29  32.6  31.2  32.9  33.5  63.2  235.6  0.04  4.6  -81  11:51 
 7348  28/07/2026 11:46:46  32.5  31.2  32.7  33.3  63.0  234.9  0.04  4.6  -83  11:46 

Data every 5 minute.


ใช้เวลาประมวลผล 0.04152 วินาที